Hall Beach, Northwest Territories

12:31 PM EDT on September 29, 2016 (GMT -0400)
Hall Beach

Weather History for CYUX - October, 2013

Change the Weather History Date:

Saturday, October 26, 2013

  Actual Average Record
Temperature  
Mean Temperature 10 °F -  
Max Temperature 21 °F 16 °F 35 °F (1996)
Min Temperature 0 °F 4 °F -9 °F (1997)
Degree Days  
Heating Degree Days 54    
Moisture  
Dew Point 11 °F    
Average Humidity 90    
Maximum Humidity 100    
Minimum Humidity 85    
Precipitation  
Precipitation 0.00 in - - ()
Sea Level Pressure  
Sea Level Pressure 29.62 in    
Wind  
Wind Speed 9 mph ()    
Max Wind Speed 16 mph    
Max Gust Speed 18 mph    
Visibility 6.7 miles    
Events Snow    
Averages and records for this station are not official NWS values.
T = Trace of Precipitation, MM = Missing Value Source: Averaged Metar Reports

Daily Weather History Graph

Daily Weather History Graph

Search for Another Location

Airport or City:

Trip Planner

Search our weather history database for the weather conditions in past years. The results will help you decide how hot, cold, wet, or windy it might be!

Date:

Astronomy

Oct. 26, 2013 Rise Set
Actual Time 9:18 AM EDT 4:58 PM EDT
Civil Twilight 8:13 AM EDT 6:02 PM EDT
Nautical Twilight 7:05 AM EDT 7:10 PM EDT
Astronomical Twilight 5:58 AM EDT 8:16 PM EDT
Moon 10:51 PM EDT (10/26) 4:03 PM EDT (10/26)
Length of Visible Light 9h 48m
Length of Day
7h 39m
Waning Gibbous, 53% of the Moon is Illuminated
Oct 26
Waning Gibbous
Oct 26
Last Quarter
Nov 3
New
Nov 10
First Quarter
Nov 17
Full

Hourly Weather History & Observations

Time (EDT) Temp. Windchill Dew Point Humidity Pressure Visibility Wind Dir Wind Speed Gust Speed Precip Events Conditions
12:00 AM 14.0 °F 2.0 °F 12.2 °F 93% 29.60 in 9.0 mi NNW 9.2 mph - N/A Snow Light Snow
12:48 AM 15.8 °F 7.2 °F 14.0 °F 93% 29.60 in 9.0 mi NNW 5.8 mph - N/A Snow Light Snow
12:57 AM 15.8 °F 8.6 °F 14.0 °F 93% 29.60 in 5.0 mi NNW 4.6 mph - N/A Snow Light Snow
12:58 AM 15.8 °F 10.2 °F 14.0 °F 93% 29.60 in 4.0 mi North 3.5 mph - N/A Snow Light Snow
1:00 AM 17.6 °F 6.4 °F 17.6 °F 100% 29.60 in 3.0 mi East 9.2 mph - N/A Snow Light Snow
1:01 AM 19.4 °F 7.9 °F 17.6 °F 93% 29.60 in 2.0 mi East 10.4 mph - N/A Snow Light Snow
1:22 AM 19.4 °F 6.6 °F 17.6 °F 93% 29.60 in 2.2 mi ENE 12.7 mph - N/A Snow Light Snow
1:24 AM 19.4 °F 7.2 °F 17.6 °F 93% 29.60 in 3.0 mi ENE 11.5 mph - N/A Snow Light Snow
1:31 AM 19.4 °F 7.2 °F 17.6 °F 93% 29.60 in 6.0 mi ENE 11.5 mph - N/A Snow Light Snow
1:47 AM 21.2 °F 8.3 °F 17.6 °F 86% 29.60 in 5.0 mi ENE 13.8 mph - N/A Snow Light Snow
1:53 AM 21.2 °F 8.3 °F 17.6 °F 86% 29.60 in 2.5 mi ENE 13.8 mph - N/A Snow Light Snow
2:00 AM 21.2 °F 8.9 °F 19.4 °F 93% 29.60 in 2.5 mi East 12.7 mph - N/A Snow Light Snow
2:04 AM 21.2 °F 8.3 °F 17.6 °F 86% 29.60 in 3.0 mi East 13.8 mph - N/A Snow Light Snow
2:17 AM 21.2 °F 8.3 °F 17.6 °F 86% 29.60 in 6.0 mi East 13.8 mph - N/A Snow Light Snow
3:00 AM 19.4 °F 5.5 °F 17.6 °F 93% 29.60 in 9.0 mi East 15.0 mph - N/A Snow Light Snow
3:25 AM 19.4 °F 5.5 °F 17.6 °F 93% 29.60 in 5.0 mi East 15.0 mph - N/A Snow Light Snow
3:41 AM 19.4 °F 6.0 °F 17.6 °F 93% 29.60 in 6.0 mi East 13.8 mph - N/A Snow Light Snow
4:00 AM 19.4 °F 6.6 °F 15.8 °F 86% 29.60 in 9.0 mi East 12.7 mph - N/A Snow Light Snow
5:00 AM 19.4 °F 6.6 °F 15.8 °F 86% 29.60 in 9.0 mi East 12.7 mph 18.4 mph N/A Snow Light Snow
6:00 AM 19.4 °F 5.0 °F 15.8 °F 86% 29.61 in 9.0 mi East 16.1 mph - N/A Snow Light Snow
7:00 AM 19.4 °F 7.2 °F 15.8 °F 86% 29.61 in 9.0 mi East 11.5 mph - N/A Snow Light Snow
8:00 AM 17.6 °F 5.7 °F 14.0 °F 86% 29.61 in 12.0 mi East 10.4 mph - N/A Snow Light Snow
9:00 AM 17.6 °F 6.4 °F 14.0 °F 86% 29.61 in 15.0 mi East 9.2 mph - N/A Snow Light Snow
9:58 AM 17.6 °F 8.2 °F 14.0 °F 86% 29.62 in 15.0 mi East 6.9 mph - N/A Snow Light Snow
10:00 AM 17.6 °F 9.3 °F 14.0 °F 86% 29.62 in 15.0 mi East 5.8 mph - N/A Snow Light Snow
10:53 AM 19.4 °F 12.8 °F 15.8 °F 86% 29.62 in 2.0 mi East 4.6 mph - N/A Snow Light Snow
11:00 AM 17.6 °F - 15.8 °F 93% 29.62 in 1.0 mi NNW 2.3 mph - N/A Snow Light Snow
11:32 AM 17.6 °F - 15.8 °F 93% 29.62 in 1.5 mi NW 2.3 mph - N/A Snow Light Snow
11:48 AM 17.6 °F - 15.8 °F 93% 29.62 in 9.0 mi WNW 2.3 mph - N/A Snow Light Snow
12:00 PM 15.8 °F 10.2 °F 14.0 °F 93% 29.62 in 6.0 mi WNW 3.5 mph - N/A Snow Light Snow
12:15 PM 14.0 °F 3.9 °F 10.4 °F 86% 29.62 in 2.0 mi NW 6.9 mph - N/A Snow Light Snow
12:37 PM 14.0 °F 2.9 °F 12.2 °F 93% 29.63 in 1.0 mi NNW 8.1 mph - N/A Snow Light Snow
12:46 PM 15.8 °F 5.1 °F 15.8 °F 100% 29.63 in 0.5 mi NNW 8.1 mph - N/A Snow Snow
1:00 PM 17.6 °F 5.7 °F 15.8 °F 93% 29.63 in 0.5 mi NNW 10.4 mph - N/A Snow Snow
1:15 PM 17.6 °F 6.4 °F 14.0 °F 86% 29.63 in 2.0 mi NNW 9.2 mph - N/A Snow Light Snow
1:34 PM 12.2 °F 0.7 °F 10.4 °F 92% 29.63 in 8.0 mi NNW 8.1 mph - N/A Snow Light Snow
2:00 PM 10.4 °F -3.3 °F 8.6 °F 92% 29.63 in 12.0 mi NNW 10.4 mph - N/A Snow Light Snow
3:00 PM 10.4 °F -4.1 °F 8.6 °F 92% 29.64 in 12.0 mi NNW 11.5 mph - N/A Snow Light Snow
4:00 PM 8.6 °F -6.3 °F 6.8 °F 92% 29.64 in 10.0 mi NNW 11.5 mph - N/A Snow Light Snow
5:00 PM 8.6 °F -7.0 °F 5.0 °F 85% 29.65 in 9.0 mi NW 12.7 mph - N/A Snow Light Snow
6:00 PM 3.2 °F -14.6 °F 1.4 °F 92% 29.65 in 10.0 mi NW 13.8 mph - N/A Snow Light Snow
7:00 PM -0.4 °F -19.2 °F -2.2 °F 92% 29.65 in 10.0 mi NW 13.8 mph - N/A Snow Light Snow
7:22 PM -0.4 °F -19.2 °F -4.0 °F 85% 29.65 in 15.0 mi NW 13.8 mph - N/A   Ice Crystals
8:00 PM 1.4 °F -16.9 °F -2.2 °F 85% 29.65 in 10.0 mi NW 13.8 mph - N/A   Ice Crystals
8:13 PM 3.2 °F -14.6 °F 1.4 °F 92% 29.65 in 5.0 mi WNW 13.8 mph - N/A Snow Light Snow
8:23 PM 3.2 °F -13.9 °F 1.4 °F 92% 29.65 in 6.0 mi WNW 12.7 mph - N/A Snow Light Snow
9:00 PM 3.2 °F -13.9 °F 1.4 °F 92% 29.64 in 9.0 mi WNW 12.7 mph - N/A Snow Light Snow
10:00 PM 5.0 °F -12.3 °F 1.4 °F 85% 29.63 in 8.0 mi WNW 13.8 mph - N/A Snow Light Snow
10:15 PM 3.2 °F -13.9 °F -0.4 °F 85% 29.63 in 5.0 mi West 12.7 mph - N/A Snow Light Snow
10:19 PM 3.2 °F -13.1 °F -0.4 °F 85% 29.63 in 4.0 mi West 11.5 mph - N/A Snow Light Snow
10:26 PM 1.4 °F -14.5 °F -2.2 °F 85% 29.63 in 3.0 mi West 10.4 mph - N/A Snow Light Snow
10:36 PM -0.4 °F -16.7 °F -4.0 °F 85% 29.63 in 6.0 mi West 10.4 mph - N/A Snow Light Snow
11:00 PM -0.4 °F -16.7 °F -4.0 °F 85% 29.63 in 9.0 mi WNW 10.4 mph - N/A Snow Light Snow
11:23 PM 3.2 °F -15.3 °F -0.4 °F 85% 29.62 in 9.0 mi WNW 15.0 mph - N/A   Clear